FENGYUN 1C DEB

Satellite information

Favourite Embed

Satellite Type and Status

DEBRISIN ORBIT

Key statistics

Satellite FENGYUN 1C DEB at a glance.

Uptime

9497

Days in orbit

Revolutions

≈ 15.0

Per day

Orbit

SSO

Sun Synchronous Orbit

Inclination

98.8

Latest

Satellite identification and parameters

Extended collection of information and parameters for FENGYUN 1C DEB.

Object identification

Identified? True

Debris? True

Object name: FENGYUN 1C DEB

International designator: 1999-025AZH

Object number (NORAD): 30919

Object ID (CCSDS): 30919

Country: PEOPLES REPUBLIC OF CHINA (PRC)

Current information (Y/N): Y

RCS size: SMALL

Orbital parameters

Period: 96.224 minutes

Inclination: 98.7953 deg

SMA: 6955.815 km

Apoapsis: 593.844 km

Periapsis: 561.515 km

RAAN: 296.2793 deg

Eccentricy: 0.0023239

Argument of periapsis: 263.3394 deg

Mean anomaly: 96.5179 deg

Mean motion: 14.96513914 rev/day

Mean motion (dot): 0.00075754 rev/day2

B* drag term: 0.0065683 1/REarth

Two-line elements (TLE)

Creation date: May 10, 2025, 2:32 a.m.

Reference frame: TEME

Reference center: EARTH

Epoch: May 9, 2025, 10:06 a.m. UTC

TLE line 0: 0 FENGYUN 1C DEB

TLE line 1: 1 30919U 99025AZH 25129.42137271 .00075754 00000-0 65683-2 0 9991

TLE line 2: 2 30919 98.7953 296.2793 0023239 263.3394 96.5179 14.96513914945910

Live tracking on map

Real-time ground track for satellite FENGYUN 1C DEB.

In-orbit conjunctions

A list of the most updated potential collisions computed for object FENGYUN 1C DEB.

Target Orbit TCA Probability of collision Miss distance Type
ORBCOMM FM 40 LEO 2025-03-10 23:42:25 0.0001474765 815.0 (m) PAYLOAD
CZ-6A DEB LEO 2025-01-11 04:43:20 0.0001050963 324.0 (m) DEBRIS

Associated space launch

Chinese polar orbiting meteorological satellite

FENGYUN 1C DEB was lifted into orbit during the mission ‘Long March 4B | Feng Yun 1C’, on board a Long March 4B space rocket.

The launch took place on May 10, 1999, 1:33 a.m. from Launch Complex 7.

For more information about the launch, click the button.

Launch to space Long March 4B | Feng Yun 1C
Long March 4B | Feng Yun 1C

Agency: N/A

Status: Launch Successful

Launch date: May 10, 1999, 1:33 a.m. UTC

Rocket: Long March 4B

Launch pad: Launch Complex 7

Location: Taiyuan Satellite Launch Center, People's Republic of China

...

Latest news about this satellite

There are no fresh news available about this satellite. Check back as we update our databases every day.


Newsletter sign-up

Weekly statistics, charts and insights to help you stay on top of the space industry.